Wind_Speed
10 11 11 11 10 10 10 10 10 10 9 9 9 8 8 9 9 8 8 7 6 6 6 6 5 5 4 4 3 3 2 2 1 0 1 1 2 3 4 4 5 6 7 8 8 9 10 10 11 12 12 13 14 14 15 15 15 15 15 15 14 14 14 15 15 16 15 15 14 15 15 16 18 18 18 17 16 16 16 16 16 16 16 16 16
9 10 10 11 11 11 11 10 10 10 10 9 9 8 8 9 9 9 9 8 7 7 6 6 5 4 4 3 2 2 1 2 2 2 3 4 4 5 6 7 7 8 9 10 11 11 12 12 13 14 15 15 16 16 16 16 16 15 15 14 14 14 14 14 15 16 16 15 15 16 16 17 18 19 19 18 18 17 16 16 16 17 17 16 17
6 8 9 10 10 11 11 11 11 11 10 10 9 9 9 9 10 10 10 9 8 8 7 6 5 4 3 3 3 3 4 4 4 5 6 6 7 8 8 9 10 11 12 13 13 13 14 14 15 16 16 17 17 18 18 17 17 16 15 14 14 14 14 14 15 15 16 16 16 16 16 18 19 19 19 19 19 18 17 17 17 17 18 18 18
6 6 7 8 9 10 11 11 12 11 11 11 10 10 10 10 11 10 10 9 9 8 8 6 5 5 4 5 5 5 6 6 7 8 9 10 10 11 11 12 13 14 15 16 16 16 16 16 17 17 17 18 18 19 18 18 17 16 16 15 14 14 14 14 14 15 16 17 17 17 17 18 19 19 19 19 19 18 18 18 18 18 18 19 20
8 8 8 8 9 9 11 11 11 12 12 12 11 11 10 10 10 10 10 9 9 8 8 7 6 6 6 6 7 8 8 9 9 10 11 12 13 14 14 15 16 17 17 18 18 18 18 18 18 18 18 18 19 19 18 17 16 16 15 14 14 14 14 14 14 15 16 17 17 18 18 19 20 21 20 18 18 18 18 18 19 19 19 19 20
9 9 10 10 10 10 10 11 11 12 12 12 12 11 10 10 10 10 10 9 8 8 8 8 7 8 8 8 9 10 11 11 12 13 14 15 16 16 17 17 18 18 19 19 18 18 18 18 18 18 19 19 19 18 18 16 16 15 15 14 15 15 15 14 14 15 15 17 17 18 19 20 21 22 21 19 18 18 18 18 19 19 20 20 20
10 10 11 11 11 11 11 11 11 12 13 13 12 12 11 11 11 10 10 9 9 9 9 9 9 9 10 11 12 12 13 14 15 16 17 17 18 18 19 19 19 19 19 18 18 18 18 18 18 19 19 20 19 19 18 17 16 15 15 15 15 15 15 15 15 15 16 16 17 18 19 21 22 23 22 21 19 18 18 18 20 21 21 21 21
12 12 12 12 12 13 13 12 12 12 12 12 12 12 12 12 12 11 11 10 10 11 11 11 11 12 12 13 14 15 15 16 17 18 19 19 20 20 20 19 19 19 18 17 17 17 18 18 19 19 19 19 19 19 18 17 16 16 15 15 15 15 15 15 16 16 17 17 17 18 19 21 22 23 23 22 21 20 19 18 19 21 22 22 22
14 13 13 13 13 13 13 14 13 12 12 12 12 12 12 12 12 12 11 11 11 12 12 13 13 14 15 15 16 17 17 18 18 19 19 19 19 19 19 19 18 17 17 17 17 17 18 18 18 19 19 19 19 19 18 17 16 16 15 15 15 15 15 16 17 17 17 17 17 18 19 20 22 22 23 23 23 22 21 20 20 20 22 23 23
14 14 14 14 14 14 14 14 14 14 14 14 13 13 13 13 13 13 13 13 13 13 14 15 16 16 17 18 18 18 18 18 18 18 18 18 18 19 19 18 17 16 16 16 17 18 18 19 19 19 19 19 19 19 18 17 16 16 16 15 15 15 16 17 18 18 18 18 18 18 19 20 22 22 22 23 23 23 23 23 23 21 21 22 23
14 14 14 15 15 14 15 14 15 16 15 14 14 14 14 15 15 14 14 14 14 15 15 16 17 18 18 19 19 19 19 18 18 17 17 18 18 19 18 17 16 16 16 17 17 18 19 19 19 20 20 19 19 19 17 16 16 16 16 15 15 16 16 17 18 18 18 18 19 19 20 21 22 23 22 23 23 23 23 24 25 25 23 23 23
14 13 13 13 13 13 13 14 15 16 15 15 16 16 15 15 15 15 14 15 15 15 15 16 17 18 19 19 19 19 19 17 17 17 17 18 19 19 18 18 17 17 17 18 18 19 20 20 20 20 20 20 20 19 18 17 16 16 16 15 15 16 16 17 18 19 19 20 20 20 20 21 23 24 24 24 23 24 24 24 25 26 26 26 25
16 14 13 12 11 11 11 13 14 15 16 16 16 16 16 16 16 15 15 15 15 14 15 16 18 19 19 19 20 19 18 17 16 17 18 18 18 18 18 18 19 19 19 19 20 21 21 21 20 19 20 20 20 19 19 18 18 18 17 16 16 16 17 18 19 20 20 21 20 20 20 22 23 24 24 24 24 24 24 25 25 26 27 27 27
16 14 12 10 9 9 10 11 12 14 15 16 16 15 15 15 16 16 16 16 16 16 17 17 18 18 18 18 19 19 18 16 17 17 18 18 18 18 18 19 20 20 21 21 22 22 22 21 20 19 19 20 20 20 19 18 18 19 18 17 17 17 18 18 19 20 21 21 20 20 20 21 22 22 22 23 24 24 25 25 25 26 26 27 28
14 13 11 9 8 7 8 9 11 13 15 15 15 15 15 15 16 17 18 18 18 18 18 18 18 18 17 17 18 18 18 17 17 18 18 18 18 19 19 19 19 20 21 22 23 23 23 21 20 19 18 19 20 21 20 19 18 19 18 18 18 18 18 19 20 21 21 21 20 20 20 21 22 21 21 22 24 25 25 25 25 25 26 27 27
14 13 11 9 9 9 9 9 9 12 13 14 14 14 15 16 17 18 19 19 19 18 18 17 17 17 17 17 17 18 18 18 18 17 18 18 19 20 20 20 20 20 21 22 23 24 24 22 21 19 19 19 20 21 20 19 19 19 20 19 18 18 19 19 20 21 21 21 20 21 22 23 23 22 22 22 23 24 24 24 24 25 26 26 27
15 13 12 11 11 11 10 10 10 10 11 12 13 14 15 15 16 17 18 18 18 18 18 17 17 17 17 17 18 19 19 19 17 17 18 19 20 21 22 22 21 21 22 23 23 23 23 23 22 21 19 19 20 21 20 20 19 20 21 20 19 18 18 19 21 22 22 21 20 22 24 24 22 21 21 22 23 24 25 26 26 26 26 27 28
16 14 13 12 12 11 12 12 11 10 10 11 12 14 14 15 15 16 16 17 17 17 18 17 17 18 17 18 18 19 19 18 17 18 19 20 21 22 23 24 24 23 23 23 23 23 23 23 23 22 21 20 20 21 21 20 20 21 21 21 20 18 18 19 21 23 23 22 21 22 24 23 21 21 22 23 26 27 29 30 30 30 29 29 28
17 16 14 13 13 12 13 13 12 11 11 11 13 14 14 14 15 15 16 17 17 17 17 17 17 17 17 17 18 18 18 18 18 19 21 21 22 23 24 25 25 25 25 24 24 24 23 23 23 24 23 22 21 21 21 20 20 21 21 21 20 19 19 20 21 23 23 22 22 23 23 22 21 22 24 26 28 29 30 31 31 31 31 30 29
17 16 15 14 14 14 14 15 14 13 13 13 13 13 13 14 15 15 17 18 18 17 16 16 16 16 16 17 17 18 18 18 18 20 22 22 23 24 25 27 27 27 27 26 25 25 24 24 24 25 26 24 22 22 22 21 21 22 22 22 21 21 20 21 22 23 23 23 23 23 23 22 23 24 26 27 28 29 30 30 31 32 32 31 30
20 20 18 17 16 17 17 17 16 16 15 14 14 13 14 14 15 16 18 18 18 18 17 17 17 17 17 17 18 18 18 18 19 21 23 25 26 27 28 30 30 30 29 29 27 27 27 27 26 26 27 27 25 24 23 23 22 23 23 23 22 22 21 22 23 23 24 24 25 26 25 25 25 26 27 28 29 29 30 31 31 32 32 32 32
20 21 23 22 19 19 19 19 18 17 17 16 15 15 15 15 16 17 18 18 18 18 18 18 18 18 17 17 17 18 19 21 21 22 25 28 29 30 31 33 34 34 33 32 31 30 29 29 30 30 29 29 28 27 26 25 25 25 26 25 24 23 23 23 24 25 25 25 27 28 29 28 28 28 29 30 31 32 32 32 33 33 33 33 33
17 19 24 24 21 20 21 21 20 19 18 18 17 16 17 17 17 17 17 18 19 19 19 19 18 17 16 16 16 18 20 20 20 22 26 28 29 30 32 34 36 37 37 35 35 34 32 32 34 34 33 32 31 30 28 27 27 28 28 27 26 25 24 24 25 26 26 27 28 29 31 31 31 31 31 32 33 35 35 35 34 34 34 34 34
17 19 22 24 24 22 21 22 23 21 21 20 19 19 19 19 18 18 18 19 20 20 20 19 18 16 15 16 15 15 18 19 20 22 25 28 30 31 32 31 32 34 37 38 37 36 36 37 39 38 36 34 33 32 30 29 28 29 29 28 28 28 26 26 27 27 27 28 29 30 31 33 33 32 32 33 35 37 38 38 37 36 36 35 35
20 21 23 25 25 22 22 24 25 24 23 23 22 21 19 19 20 19 20 21 21 21 20 19 16 15 16 16 14 13 15 19 21 24 27 31 34 35 34 32 30 31 33 35 35 36 38 40 40 39 37 35 34 33 31 30 29 29 29 30 30 30 29 28 28 27 27 28 30 31 32 33 32 31 32 34 36 39 40 40 39 39 38 37 37
22 23 24 26 24 21 22 24 25 26 25 25 24 22 19 19 20 21 21 21 21 20 19 18 16 16 16 16 14 14 15 18 22 24 26 29 32 32 32 32 31 32 32 31 30 32 34 36 37 37 37 37 36 34 32 30 30 30 31 31 32 31 30 31 30 29 29 29 30 32 32 32 32 31 32 35 38 40 42 42 42 43 42 40 39
23 25 25 25 23 20 22 24 26 27 27 26 25 23 20 19 20 21 22 22 21 20 20 18 16 16 15 14 15 17 17 18 20 22 24 27 29 30 30 30 30 29 29 29 29 30 30 31 33 35 36 38 37 34 32 32 32 32 32 32 32 32 32 32 32 31 31 31 32 33 33 34 33 32 34 37 39 42 43 44 46 46 44 43 42
24 25 24 24 24 23 24 26 27 28 28 28 26 24 22 21 21 21 21 21 21 20 18 16 15 15 13 14 17 20 21 21 21 22 24 27 30 31 31 31 29 26 26 28 29 30 30 29 30 32 34 35 35 34 33 32 32 33 33 33 33 33 33 34 34 33 32 33 34 34 35 35 35 35 36 39 41 43 45 47 48 47 45 44 44
23 24 25 26 25 25 26 27 28 29 29 28 26 25 24 22 22 21 21 20 19 19 18 16 16 16 16 17 20 23 25 27 27 27 27 28 30 31 31 31 30 28 28 30 31 30 29 28 29 30 32 32 33 33 32 31 31 32 33 34 33 33 33 35 35 34 34 34 34 35 36 36 36 37 38 41 43 45 46 47 47 46 45 46 44
22 22 24 25 24 24 25 26 28 29 29 27 25 25 23 22 21 20 19 18 17 18 18 18 18 18 19 22 24 26 28 30 31 30 30 29 30 31 31 31 31 31 32 33 34 32 30 28 29 30 31 30 31 32 31 30 31 32 33 34 33 33 34 35 36 36 35 35 35 35 37 38 38 39 40 42 44 46 47 47 46 47 48 45 41
24 23 24 25 23 23 23 24 26 26 26 25 24 23 21 19 18 16 16 15 16 17 18 18 19 21 23 25 26 28 30 32 32 33 33 33 32 32 31 30 30 32 33 35 36 33 29 28 29 31 31 30 31 32 31 30 33 35 35 34 33 34 35 35 35 36 36 35 35 36 38 39 40 40 42 44 45 48 49 48 47 48 46 41 39
26 26 26 25 24 23 22 22 22 23 23 23 23 22 19 17 16 15 15 15 16 16 18 19 22 24 26 27 29 30 32 33 35 36 36 36 35 33 32 30 30 31 33 35 35 33 29 29 30 30 30 30 30 32 32 32 33 34 33 32 33 34 34 34 35 36 36 36 36 37 39 40 41 42 43 45 47 50 52 49 47 45 42 40 42
26 27 27 26 24 23 22 23 24 24 24 24 24 23 20 18 18 17 17 17 17 17 19 21 23 26 28 30 31 33 34 36 37 39 39 38 37 37 35 34 32 32 33 33 32 31 30 30 31 31 30 29 28 29 29 29 29 29 30 31 32 33 34 34 35 35 36 36 37 39 40 41 42 44 44 46 51 53 52 48 45 42 42 44 46
27 28 27 26 24 23 24 27 29 28 27 27 27 25 23 23 21 20 21 21 21 21 22 23 25 27 29 32 33 35 36 37 38 41 41 40 40 39 38 37 35 34 32 30 30 30 30 29 31 32 30 28 25 25 26 28 27 27 28 28 30 32 34 34 35 36 36 36 38 39 40 42 44 44 45 50 54 54 51 47 44 43 44 46 47
29 28 28 26 24 25 28 32 33 32 31 31 30 28 27 26 24 23 25 26 26 26 27 27 28 29 31 33 35 37 38 39 41 43 44 43 42 40 40 39 37 34 31 29 30 32 32 30 31 33 31 28 25 25 27 27 26 25 26 27 29 32 34 35 36 37 37 37 39 40 41 43 44 44 48 53 55 52 50 47 45 45 46 46 47
30 29 29 27 26 28 32 35 36 35 34 34 33 30 29 28 26 26 28 29 29 29 30 31 32 33 34 36 38 40 41 42 43 45 46 46 44 42 41 40 36 33 32 31 31 32 32 31 33 34 33 29 27 28 29 27 25 25 27 28 30 32 34 37 38 39 38 38 40 41 42 44 44 47 52 55 53 50 49 48 46 46 47 47 48
33 32 32 31 30 32 36 38 38 38 37 37 35 33 31 29 28 29 31 32 32 32 32 33 35 37 38 39 41 43 44 44 46 47 48 48 45 43 43 40 35 33 32 32 32 31 31 33 36 35 33 32 31 31 31 29 28 27 28 29 31 33 35 38 39 39 38 39 40 42 43 44 47 52 56 54 49 48 48 48 47 48 48 49 49
35 33 33 34 35 36 38 41 42 42 40 38 37 35 32 31 32 32 33 33 33 34 34 36 38 40 41 42 43 45 46 46 47 49 49 48 45 44 44 39 33 32 32 31 32 31 31 35 37 35 35 36 35 35 34 32 31 30 30 30 32 34 36 38 38 38 38 38 40 42 45 48 51 55 55 50 47 47 48 48 49 50 50 50 49
35 34 34 36 38 40 42 44 46 44 42 40 39 36 34 34 35 35 35 35 35 35 36 37 40 42 43 44 45 46 47 48 49 50 50 48 44 45 44 38 32 32 31 29 30 31 31 34 36 36 37 37 36 37 37 35 35 34 33 33 33 34 36 38 38 37 36 37 40 44 47 51 54 53 50 47 47 48 48 49 50 51 51 50 49
36 36 37 38 40 43 44 46 47 46 44 42 41 38 37 37 37 37 37 36 36 36 38 40 43 44 44 46 47 48 48 48 49 51 51 49 47 47 44 37 32 32 31 29 31 31 31 32 35 37 38 36 36 37 37 37 38 38 36 36 37 36 36 38 38 36 35 38 43 46 48 50 50 48 46 45 47 49 50 50 51 51 51 50 48
38 37 38 40 42 44 46 47 48 46 44 44 43 42 41 40 39 39 38 38 38 40 42 44 45 45 46 48 49 48 47 48 49 52 54 54 53 49 42 35 32 33 32 31 32 32 30 31 33 36 37 37 37 36 37 39 42 42 42 43 41 38 38 39 37 35 38 43 47 48 48 48 46 44 43 45 48 50 51 51 51 51 50 48 46
39 38 39 40 41 43 45 47 47 46 45 44 44 44 42 41 41 40 40 41 42 44 45 45 46 46 47 49 49 48 47 47 49 52 55 57 52 44 38 34 33 33 34 34 34 32 30 29 30 32 35 36 38 39 40 42 43 45 47 47 44 40 38 37 36 38 44 48 50 50 48 45 42 41 43 46 49 51 51 51 50 50 49 46 43
42 41 39 38 39 40 42 45 46 46 45 45 45 45 43 41 41 40 41 43 44 45 46 46 46 47 49 50 51 49 47 47 49 51 54 51 44 37 35 35 34 34 35 34 32 29 28 27 28 31 34 35 37 40 41 42 44 46 47 44 41 38 36 36 39 43 48 50 50 48 45 42 41 43 46 49 51 51 51 51 50 49 47 44 42
42 41 38 37 37 39 41 44 46 47 48 49 48 44 40 39 40 40 41 42 43 45 47 48 49 50 51 50 49 49 48 48 49 50 48 43 37 35 35 35 34 33 32 30 28 27 27 27 28 30 32 34 38 40 40 42 46 46 43 40 38 36 36 40 44 47 49 49 47 43 41 41 44 47 49 50 51 51 50 49 48 47 44 42 41
40 39 38 38 38 40 43 46 48 50 52 50 44 38 37 38 40 40 41 42 42 43 45 47 50 51 50 49 48 49 50 49 46 44 42 39 38 39 38 37 35 33 31 29 28 28 29 29 29 29 31 35 38 40 42 45 45 41 37 36 37 39 42 46 47 48 48 46 42 40 42 45 48 49 50 51 50 49 48 47 46 44 42 41 41
39 39 39 39 40 42 45 47 48 49 48 43 38 36 37 38 39 40 41 42 41 41 42 44 44 44 45 46 47 48 47 43 40 40 40 41 41 41 40 38 36 35 33 30 29 29 30 29 28 29 32 34 35 38 42 42 38 35 35 38 42 45 47 47 47 46 44 41 40 42 46 49 50 51 51 50 49 47 46 45 43 42 41 41 41
39 39 39 40 41 42 44 44 44 42 40 38 37 38 38 38 39 40 41 41 41 41 41 41 40 39 39 41 41 41 38 36 36 38 40 42 43 41 40 39 39 38 37 34 30 29 28 28 29 30 32 33 35 39 40 38 35 36 40 44 46 47 47 46 44 43 41 41 43 46 50 52 52 51 50 49 47 44 43 42 42 41 41 41 41
38 39 40 40 41 41 41 42 42 41 39 38 38 37 38 39 40 40 40 40 40 40 40 40 39 38 37 36 36 35 34 34 36 38 39 41 41 40 40 41 41 40 37 33 30 27 28 30 33 34 33 35 37 38 38 37 39 43 45 46 46 46 45 43 42 42 43 44 47 50 53 53 52 50 49 47 44 42 41 41 40 40 40 40 40
39 40 40 38 38 39 38 38 39 39 38 38 38 38 40 41 41 41 41 42 41 40 40 40 39 38 37 36 35 35 35 36 37 37 38 40 41 42 43 41 40 39 35 30 28 30 33 35 36 35 34 36 37 38 39 42 45 47 47 47 46 45 44 42 42 43 46 48 49 51 52 51 50 49 47 44 42 39 39 39 38 38 39 39 38
41 40 39 38 38 39 38 38 39 39 39 39 40 41 42 42 42 43 43 42 41 40 40 40 40 40 39 38 38 37 36 37 37 37 39 40 40 41 40 37 34 31 28 27 30 36 37 35 34 34 36 37 39 41 44 46 47 47 47 46 45 45 44 43 44 45 47 49 51 51 50 49 48 46 44 42 39 37 36 37 37 37 38 37 37
42 42 42 42 41 39 39 40 40 40 39 40 42 43 43 44 44 43 42 42 41 40 40 41 41 42 41 40 40 39 38 38 38 39 39 39 37 35 35 34 30 27 27 32 39 39 36 34 35 37 39 41 42 44 45 46 46 45 44 44 45 45 44 45 45 46 48 50 51 50 49 47 45 42 40 38 36 35 35 35 36 36 36 35 34
Wind_Direction
175 181 187 189 192 194 195 195 197 200 202 202 204 206 210 213 216 221 227 235 232 216 198 186 178 172 165 161 160 155 155 154 157 197 307 314 313 318 320 324 326 325 323 321 321 319 317 316 315 317 320 324 325 325 325 324 324 324 323 321 318 315 314 314 314 315 318 321 324 327 330 331 330 328 325 323 322 322 322 319 317 316 314 313 311
173 179 184 186 189 191 193 195 197 202 207 209 211 213 217 221 221 223 228 234 227 214 204 195 189 186 185 188 204 224 246 265 281 292 300 304 306 310 314 316 316 316 314 312 310 309 309 310 311 314 317 319 318 318 319 319 318 318 317 315 312 310 310 309 310 311 313 317 320 324 327 329 330 328 325 323 321 320 318 316 314 312 310 310 308
182 184 187 189 189 191 192 195 197 202 210 215 218 218 219 222 225 226 227 229 225 215 208 205 204 206 217 233 253 271 281 288 296 301 302 304 307 310 313 315 316 315 311 307 304 303 304 305 308 310 312 312 312 312 313 313 314 313 312 311 308 308 307 305 305 306 310 313 316 321 323 324 328 328 324 322 320 318 316 313 312 310 309 309 307
203 202 199 196 195 195 195 196 198 202 210 217 219 218 215 217 221 226 227 223 221 218 215 217 221 231 248 264 275 283 288 296 301 305 306 308 310 310 312 314 316 316 313 309 305 303 302 302 303 304 304 306 307 307 308 309 310 311 309 308 307 305 303 302 302 303 307 310 313 317 318 321 324 325 323 320 317 315 313 310 309 308 307 307 305
210 216 217 210 203 202 201 199 198 200 208 215 217 214 209 209 213 220 225 223 221 221 224 230 238 251 264 273 280 285 290 295 299 302 305 307 308 308 309 311 312 313 313 311 308 305 303 301 299 299 299 301 302 304 305 306 308 308 308 307 306 304 302 300 300 302 305 308 311 313 315 318 322 323 322 320 316 313 312 309 307 306 304 303 302
215 218 223 223 217 211 207 205 202 201 206 209 211 209 204 203 206 212 218 222 224 228 235 243 251 262 271 277 282 286 290 293 296 298 301 302 303 303 304 305 305 307 310 310 308 305 303 301 299 299 299 300 302 305 306 305 306 308 308 308 307 304 302 300 299 301 302 304 308 311 314 317 320 322 322 320 317 314 312 309 307 306 305 304 302
220 219 223 228 226 222 217 213 211 209 209 212 212 210 206 203 204 209 214 219 228 235 242 251 259 266 273 277 281 284 288 292 294 296 298 299 299 299 298 299 300 303 305 306 306 304 302 302 301 302 302 304 306 309 309 306 306 309 309 308 306 303 301 300 299 299 300 301 305 309 313 316 319 321 320 319 317 314 311 309 308 307 306 305 304
224 222 223 225 225 226 226 223 222 220 220 222 223 220 217 214 212 212 216 221 231 240 247 255 261 266 270 274 278 282 286 289 292 296 298 299 299 298 297 297 298 298 300 302 303 302 302 302 304 305 306 307 310 312 310 306 306 308 308 307 304 302 300 299 298 297 298 300 304 308 312 315 318 320 319 318 317 313 310 309 308 309 308 307 304
227 227 225 225 226 228 230 231 228 227 229 231 233 235 233 230 227 224 226 231 237 246 253 259 263 266 269 272 276 280 283 288 293 296 298 299 299 299 299 297 295 294 296 300 300 300 302 304 306 307 308 309 311 311 309 305 305 307 306 304 302 301 299 297 296 295 297 300 304 308 312 314 317 318 317 316 316 314 313 311 310 310 310 308 305
229 230 227 226 228 229 231 234 234 232 232 235 237 241 244 242 241 239 239 242 246 253 258 262 266 268 270 273 276 279 284 289 294 297 298 298 299 299 298 295 291 291 293 296 297 299 302 304 307 309 309 310 311 310 306 302 302 303 303 301 299 298 297 296 295 295 297 301 305 309 311 313 314 315 315 314 314 314 314 314 313 311 310 308 306
229 232 232 230 231 232 236 237 239 239 238 239 240 241 246 248 249 250 251 253 254 257 262 265 268 270 272 275 278 280 284 289 293 295 296 297 297 298 297 293 289 289 291 293 295 299 303 306 309 310 310 310 310 308 303 299 299 299 299 297 297 296 296 296 296 297 301 304 307 310 312 312 312 313 313 311 311 312 312 313 313 312 311 308 306
225 229 233 236 238 239 244 244 245 247 247 247 247 248 254 256 258 258 257 257 257 258 263 267 270 272 275 278 279 281 284 288 292 294 295 296 296 297 297 294 291 290 292 295 298 302 306 309 310 310 309 309 308 305 300 296 295 296 295 295 295 296 297 297 298 300 303 306 308 311 312 312 311 311 310 308 307 308 309 310 310 310 309 308 308
221 223 228 235 243 244 249 252 252 254 252 251 251 253 257 260 261 260 257 256 257 261 265 269 272 274 276 277 278 280 284 289 292 294 295 295 296 296 295 294 293 294 296 298 301 304 308 310 310 309 308 307 306 303 298 293 293 294 294 294 296 298 299 300 301 303 305 307 309 311 313 313 310 307 305 304 304 305 306 307 307 306 306 306 307
229 229 231 233 242 246 248 252 253 255 253 252 252 252 254 255 256 255 254 255 258 263 267 269 273 275 275 275 275 278 283 289 292 292 293 295 297 296 295 295 295 296 298 300 302 304 306 308 308 307 306 305 304 301 297 294 293 294 293 294 297 299 301 302 303 304 305 306 307 310 314 316 313 308 304 303 304 305 305 304 304 303 302 302 303
245 246 247 246 253 260 261 256 251 251 254 255 254 253 252 252 253 254 255 258 261 265 268 269 272 273 273 271 273 278 282 286 290 291 294 296 297 296 296 295 295 295 297 298 300 302 304 306 306 305 304 303 301 299 297 295 294 294 293 294 297 300 302 304 304 304 303 303 305 309 313 316 315 312 309 309 309 309 308 305 302 301 300 299 300
260 259 259 261 267 277 280 270 255 250 254 259 259 258 257 255 256 257 259 262 265 266 267 267 269 270 270 270 272 276 280 285 289 291 294 295 294 293 292 291 291 292 293 295 297 299 302 305 304 303 302 301 299 298 297 295 293 294 294 294 296 300 303 304 303 301 301 301 303 307 311 314 313 310 309 311 314 315 315 311 306 302 300 301 301
268 262 264 271 276 280 278 274 267 258 258 263 265 265 264 263 263 263 264 265 265 266 265 264 266 266 267 269 272 274 278 283 287 289 291 292 292 290 288 287 287 288 290 292 294 296 299 302 302 300 300 300 298 297 296 294 292 293 294 293 294 299 302 301 300 300 301 301 302 306 312 314 313 309 309 310 313 315 315 314 312 309 306 304 302
260 258 264 271 280 284 279 273 269 265 265 270 271 271 270 270 269 268 267 265 263 263 264 264 265 265 265 266 268 271 276 281 285 286 287 289 290 289 287 287 287 288 289 291 292 293 295 297 297 298 299 299 298 297 295 292 289 290 292 291 292 297 300 299 299 301 301 299 301 308 313 315 316 314 312 311 311 312 312 313 313 312 310 307 303
249 254 259 265 277 283 276 268 263 265 270 272 274 276 275 271 267 266 264 263 260 259 261 262 261 261 262 263 265 268 273 277 280 283 285 287 289 289 289 290 290 291 292 292 292 292 292 293 294 296 297 298 297 296 294 290 287 288 290 290 292 296 298 299 300 302 301 298 300 307 311 314 318 319 318 318 317 316 314 313 312 311 310 307 304
244 251 255 256 264 270 268 265 261 263 269 274 279 282 278 270 264 260 257 257 257 257 257 257 256 256 257 258 261 265 269 275 281 285 289 292 293 292 294 295 294 294 293 294 295 293 291 289 291 293 294 295 296 295 294 291 287 287 290 290 291 293 296 297 298 300 301 298 296 300 305 310 315 318 320 321 322 320 317 314 312 310 308 305 302
238 247 252 249 249 254 258 260 259 261 268 275 283 287 281 270 261 255 252 252 255 257 256 255 252 252 253 257 263 269 277 284 287 291 296 299 298 297 298 298 296 294 293 293 296 296 292 288 287 287 288 290 293 293 292 291 289 289 291 290 289 291 295 297 298 299 300 298 295 293 296 301 307 313 318 320 321 321 319 316 313 310 307 303 299
229 239 247 247 242 243 247 254 259 263 268 275 282 287 283 272 262 256 251 249 251 254 254 253 252 252 256 265 278 289 294 289 285 290 299 303 301 298 298 297 296 296 294 293 293 293 291 288 286 284 285 288 290 290 288 288 289 290 290 289 288 290 292 295 297 297 299 299 296 293 291 293 298 305 312 316 318 319 320 318 315 312 308 303 298
225 229 241 245 241 240 244 252 259 262 267 273 278 282 280 272 265 259 251 245 246 247 249 251 253 258 268 281 293 302 302 297 291 294 302 305 304 301 300 297 296 295 293 292 290 288 287 288 288 285 285 288 289 288 286 285 286 289 288 285 284 286 289 292 294 295 296 297 296 294 292 291 293 297 304 311 314 317 320 319 316 313 309 304 299
237 234 238 242 243 245 249 254 259 264 268 271 274 278 277 270 264 256 247 242 242 244 247 252 259 272 285 292 297 302 305 307 306 305 308 308 305 302 299 298 299 297 294 293 290 286 287 290 290 286 285 287 289 287 285 284 285 287 285 281 281 285 288 290 291 293 293 294 295 294 294 293 293 294 300 306 311 315 318 318 316 314 310 306 301
251 248 244 245 248 252 254 256 260 264 267 268 271 276 274 266 258 250 243 243 246 247 252 260 273 288 295 294 295 297 299 304 307 309 311 309 305 303 300 299 302 304 304 302 296 290 289 290 290 286 282 286 289 287 285 284 284 284 282 281 282 285 288 290 290 290 291 292 293 294 295 295 294 294 298 304 308 312 314 316 316 314 312 308 304
254 252 244 246 251 254 254 255 257 261 265 266 269 274 272 261 254 249 246 249 252 257 264 274 285 293 295 295 295 290 291 302 308 311 314 313 313 315 312 308 305 304 306 308 305 301 295 292 291 288 285 287 287 285 284 284 283 282 281 281 283 286 289 291 291 291 291 292 293 295 297 297 295 294 297 303 306 309 312 314 314 313 310 308 305
251 252 246 246 250 252 252 253 256 260 262 264 267 271 269 260 255 252 253 256 260 267 274 281 288 291 291 290 289 287 295 312 319 319 322 322 322 324 322 317 312 306 305 308 309 309 304 297 295 293 291 290 286 283 283 283 281 281 281 282 285 286 290 293 293 292 293 295 297 299 299 299 296 295 297 302 305 308 311 313 313 311 310 308 305
248 252 247 242 244 247 251 255 257 259 260 262 266 267 263 259 257 256 258 261 266 272 278 285 291 292 287 282 285 293 304 316 319 320 323 323 323 323 320 317 313 307 307 309 309 309 307 302 298 296 294 293 289 284 282 280 279 279 281 284 286 287 291 295 294 293 294 295 297 298 299 298 296 294 297 301 304 307 311 312 312 310 310 308 305
245 247 244 239 240 246 251 256 258 258 258 260 263 263 260 260 261 262 263 267 272 277 281 289 297 296 291 289 293 303 310 312 314 317 319 319 320 320 319 317 313 308 307 309 309 310 309 304 299 296 294 294 292 287 282 278 277 279 283 285 285 287 291 294 293 292 292 293 295 297 298 297 295 294 297 301 304 308 311 312 311 309 308 306 302
241 242 243 240 241 246 251 254 255 256 258 261 262 261 260 262 264 267 271 275 280 282 286 293 299 299 298 298 300 305 307 308 312 316 317 317 318 318 318 316 314 310 307 306 307 308 307 303 299 295 293 293 291 285 279 276 275 278 285 287 285 287 291 292 291 290 290 290 293 295 295 294 293 294 296 300 304 309 312 311 308 306 306 303 299
236 241 242 240 241 246 248 249 251 254 257 259 258 258 258 259 261 265 272 277 280 284 289 295 299 299 300 300 301 302 302 303 308 313 316 318 319 319 318 314 310 306 302 300 301 301 300 299 298 296 294 293 290 283 278 276 275 278 284 287 286 288 292 292 290 289 288 289 290 291 291 291 292 293 295 299 306 310 310 309 307 305 303 301 299
235 240 241 240 242 246 248 250 254 257 259 258 256 257 257 254 255 260 268 273 278 285 292 297 299 302 302 302 302 302 301 302 307 312 315 317 318 318 317 312 307 302 297 295 297 296 293 296 298 296 294 291 286 281 279 279 278 279 283 287 289 292 294 292 289 287 286 287 288 288 289 289 291 293 296 301 307 309 308 307 306 303 301 299 300
234 235 236 239 242 245 249 254 258 261 262 260 258 259 259 258 259 265 272 276 280 287 294 299 303 306 307 306 305 303 301 302 307 311 314 315 315 315 314 310 306 302 295 292 294 292 289 293 297 296 291 284 278 276 278 279 280 282 286 291 294 296 296 293 291 287 285 285 285 287 288 289 290 293 298 304 308 307 306 306 304 301 299 299 301
225 229 233 237 241 245 249 252 255 259 263 263 263 265 266 267 270 277 281 282 284 288 292 297 302 306 309 308 306 303 301 301 306 310 312 312 312 312 312 310 307 301 294 288 288 289 288 290 294 293 287 277 271 272 276 278 281 286 289 293 296 298 298 295 292 289 286 284 284 286 287 288 290 295 301 305 307 306 306 305 302 299 299 300 302
220 226 233 237 241 244 248 252 257 262 264 265 266 269 269 271 276 282 283 284 287 290 291 293 298 303 306 308 308 305 301 301 304 308 310 309 309 309 310 309 305 300 294 287 286 289 290 289 291 290 283 271 265 269 274 275 280 285 287 290 294 297 297 295 293 290 287 285 284 284 284 286 291 297 302 305 306 305 304 303 301 300 301 302 303
218 225 231 235 238 238 241 250 258 262 262 263 264 266 269 274 279 280 280 283 288 290 290 292 295 299 303 306 307 305 302 301 303 306 307 307 307 307 308 307 303 298 294 289 287 290 290 289 290 288 280 270 262 263 268 270 274 279 285 289 293 294 294 293 293 291 287 284 283 282 284 288 293 299 303 305 305 303 302 302 302 303 303 303 303
219 224 228 232 235 235 237 247 255 258 258 259 261 264 270 276 278 278 278 282 286 288 289 291 294 298 301 302 304 303 302 301 302 304 305 305 305 306 306 304 298 294 291 289 288 288 288 290 290 284 276 269 262 259 263 266 269 276 284 289 291 293 293 293 292 289 285 283 283 285 287 291 295 300 303 304 303 301 301 302 303 304 303 303 303
218 222 226 232 238 239 241 246 251 253 255 258 260 264 270 275 276 276 276 279 283 285 287 290 293 296 299 300 301 301 299 299 300 302 303 303 302 303 304 301 294 290 290 290 291 291 290 292 289 279 269 267 263 258 259 262 266 273 283 288 290 293 294 293 291 287 284 284 287 289 291 293 296 300 302 302 301 301 302 303 303 303 303 303 303
216 219 225 233 239 241 243 247 250 253 256 259 261 265 270 274 273 272 273 276 279 282 285 289 292 295 297 298 298 298 298 299 299 300 302 302 299 300 300 297 290 288 289 291 293 293 293 291 283 270 263 263 262 259 259 261 264 269 277 285 290 293 294 293 289 285 285 288 292 294 294 295 297 299 300 301 301 302 302 303 303 303 303 303 303
221 223 227 232 238 241 244 248 251 254 258 261 263 266 269 271 270 269 270 273 277 281 285 289 291 293 295 296 296 296 297 298 298 298 300 300 299 299 297 293 288 288 289 291 291 291 290 287 277 267 262 262 261 260 262 266 266 266 272 282 288 291 293 292 288 285 288 294 297 298 297 297 298 299 299 300 301 302 303 303 303 303 303 303 302
227 229 231 234 238 242 245 248 251 255 259 263 265 268 269 269 268 267 268 271 275 281 286 288 289 290 292 293 295 296 296 296 298 298 298 299 299 297 292 288 288 289 290 290 289 287 285 283 276 269 267 267 264 265 269 270 266 265 271 278 284 289 292 289 285 286 293 299 302 302 300 299 298 298 300 301 302 303 303 303 303 303 302 302 300
230 232 234 237 241 244 247 251 255 258 261 264 267 268 267 265 264 266 271 276 281 284 286 286 287 288 288 291 294 295 294 296 298 298 297 298 297 291 286 286 288 290 291 290 287 284 281 278 276 273 272 272 271 272 275 274 270 269 270 273 279 286 287 286 287 293 299 304 305 303 300 299 298 299 300 302 302 303 303 303 303 302 301 300 298
233 235 238 241 245 248 251 254 257 260 263 265 265 265 264 265 269 275 281 284 284 283 283 285 287 287 286 287 290 292 293 295 297 298 297 295 291 286 286 288 290 292 293 289 285 281 279 280 282 279 275 275 277 276 275 276 278 277 274 275 279 282 284 288 296 301 304 304 302 300 299 299 299 300 302 302 302 303 303 302 301 300 300 299 297
236 239 242 245 248 250 252 253 255 257 258 257 257 259 263 270 276 280 281 281 281 281 282 284 285 285 285 286 287 290 293 295 296 296 295 292 288 287 288 290 291 293 292 288 285 283 284 287 286 280 277 280 282 278 276 280 286 285 282 280 281 283 291 299 303 304 303 301 299 297 297 298 300 302 302 302 302 302 302 300 299 299 298 297 297
238 242 244 246 247 248 249 250 249 250 251 253 256 261 267 273 276 276 277 279 280 282 283 283 283 284 286 287 287 289 292 293 293 293 292 291 290 290 291 292 292 292 290 287 285 285 287 289 285 280 282 286 285 282 282 286 288 286 283 283 288 295 301 305 304 302 299 297 296 296 297 300 302 302 302 302 302 302 300 299 298 298 297 296 297
237 239 239 239 241 243 245 246 246 248 252 258 263 265 267 269 272 273 275 277 279 281 282 283 284 286 288 289 288 288 289 289 290 290 291 290 290 291 293 293 292 292 291 289 288 287 288 288 285 284 287 288 288 288 288 286 284 284 288 294 299 302 303 302 300 298 296 295 295 296 299 302 303 302 302 302 302 301 299 298 297 297 296 297 297
235 236 237 238 239 241 243 245 249 253 258 263 266 267 267 269 271 272 273 274 277 279 281 282 285 289 290 291 290 288 286 285 286 287 287 288 290 291 293 293 292 291 291 291 290 289 287 286 286 287 289 289 289 288 286 284 285 292 298 301 301 301 300 299 298 296 296 295 295 297 300 301 301 301 302 301 300 299 297 296 297 296 297 297 298
236 239 242 245 247 249 251 253 255 259 262 265 267 268 269 270 270 270 271 274 276 279 279 281 285 289 290 289 288 285 282 282 283 284 285 287 289 290 291 292 290 288 287 287 287 286 287 289 290 289 287 285 283 281 283 286 291 295 298 298 298 298 298 298 296 296 295 294 295 298 300 301 301 301 301 300 299 297 296 296 296 296 297 299 299
239 241 242 244 248 252 255 256 257 259 261 263 266 269 271 271 270 271 272 273 275 277 278 281 284 286 286 285 283 281 280 281 282 284 286 287 289 290 290 289 286 283 281 280 281 287 292 294 293 291 285 280 278 280 285 291 294 295 296 297 297 297 297 295 294 294 294 295 296 298 300 301 301 301 299 298 297 296 295 295 296 297 298 299 300
240 240 241 243 247 253 256 258 261 262 262 263 267 270 272 272 272 272 272 272 273 275 278 281 283 284 283 283 281 280 281 282 283 285 287 289 293 292 288 283 279 275 274 279 287 293 295 293 291 288 283 279 280 283 288 292 294 295 296 296 296 296 294 293 292 292 294 296 299 300 301 301 300 300 298 297 296 295 294 295 296 297 299 300 300
239 240 243 247 251 255 259 262 263 263 262 265 269 271 272 272 271 271 271 271 273 276 278 280 282 282 282 282 281 282 283 283 284 286 287 290 293 291 285 281 276 270 275 290 297 296 293 289 287 285 282 282 284 287 290 292 293 293 294 294 294 293 292 292 292 293 295 298 300 301 301 300 299 298 297 296 296 295 295 296 297 298 300 301 302
Height
5925 5925 5925 5926 5926 5927 5927 5928 5929 5929 5930 5931 5931 5932 5933 5933 5934 5934 5935 5935 5935 5935 5936 5936 5936 5937 5937 5937 5937 5937 5937 5937 5937 5937 5937 5937 5936 5936 5936 5935 5935 5934 5933 5933 5933 5932 5931 5931 5930 5929 5928 5927 5927 5926 5925 5924 5923 5922 5920 5919 5918 5917 5917 5916 5914 5913 5912 5912 5910 5909 5909 5907 5906 5904 5903 5902 5901 5899 5898 5897 5896 5895 5895 5894 5894
5925 5925 5925 5925 5926 5926 5927 5927 5928 5928 5929 5930 5930 5931 5932 5932 5933 5934 5934 5934 5935 5935 5935 5935 5936 5936 5936 5936 5936 5937 5936 5936 5936 5936 5936 5936 5936 5935 5935 5935 5934 5933 5933 5932 5932 5931 5930 5930 5929 5928 5927 5926 5925 5925 5924 5923 5922 5920 5919 5918 5917 5916 5915 5914 5913 5912 5911 5910 5909 5908 5907 5906 5904 5903 5901 5900 5899 5898 5897 5896 5895 5893 5893 5892 5892
5925 5925 5925 5925 5925 5925 5926 5926 5927 5927 5928 5929 5930 5930 5931 5931 5932 5933 5933 5934 5934 5934 5934 5934 5935 5935 5936 5936 5936 5936 5936 5936 5935 5935 5935 5935 5935 5934 5934 5933 5933 5932 5932 5931 5931 5930 5929 5928 5927 5926 5926 5925 5924 5923 5922 5921 5920 5919 5918 5917 5916 5915 5914 5913 5912 5910 5909 5908 5907 5906 5905 5904 5903 5901 5900 5898 5897 5896 5895 5894 5893 5892 5891 5890 5889
5925 5925 5925 5925 5925 5925 5925 5926 5926 5927 5927 5928 5928 5929 5929 5930 5931 5931 5932 5933 5933 5933 5934 5934 5934 5934 5935 5935 5935 5935 5935 5935 5934 5934 5934 5934 5933 5933 5932 5932 5931 5931 5930 5930 5929 5928 5927 5926 5926 5925 5924 5924 5923 5922 5921 5920 5919 5918 5917 5916 5915 5913 5912 5911 5910 5909 5907 5906 5905 5904 5903 5902 5901 5900 5898 5897 5895 5894 5893 5892 5891 5890 5889 5888 5887
5924 5925 5925 5925 5925 5925 5925 5925 5926 5926 5926 5927 5927 5928 5928 5929 5930 5930 5931 5932 5932 5933 5933 5933 5933 5933 5934 5934 5934 5934 5934 5934 5933 5933 5933 5932 5932 5931 5931 5930 5930 5929 5929 5928 5927 5926 5925 5924 5924 5923 5923 5922 5922 5921 5920 5919 5918 5917 5915 5914 5913 5912 5911 5910 5909 5907 5906 5905 5903 5902 5901 5900 5899 5897 5896 5895 5894 5893 5892 5890 5889 5889 5888 5887 5886
5923 5924 5924 5925 5925 5925 5925 5925 5925 5925 5926 5926 5927 5927 5928 5928 5929 5929 5930 5931 5931 5932 5932 5932 5932 5932 5932 5932 5932 5932 5932 5932 5932 5931 5931 5931 5930 5930 5929 5928 5928 5927 5927 5926 5925 5924 5923 5923 5922 5921 5921 5920 5920 5919 5918 5917 5916 5915 5914 5913 5911 5910 5909 5908 5907 5906 5905 5903 5902 5900 5899 5898 5896 5895 5894 5893 5892 5891 5890 5889 5888 5887 5886 5885 5884
5922 5922 5923 5924 5924 5925 5925 5925 5925 5925 5925 5926 5926 5926 5927 5927 5928 5928 5929 5929 5930 5930 5931 5931 5931 5931 5931 5931 5931 5931 5931 5930 5930 5930 5929 5929 5928 5927 5927 5926 5925 5925 5925 5924 5923 5922 5921 5921 5920 5919 5919 5918 5917 5916 5915 5915 5914 5913 5912 5911 5910 5908 5907 5906 5905 5904 5903 5902 5901 5899 5898 5896 5894 5892 5891 5890 5890 5889 5887 5886 5885 5884 5884 5883 5881
5920 5921 5922 5922 5923 5924 5924 5924 5924 5925 5925 5925 5925 5925 5926 5926 5927 5927 5927 5928 5928 5929 5929 5929 5929 5929 5929 5929 5929 5929 5929 5929 5928 5928 5927 5927 5926 5925 5924 5923 5923 5923 5922 5922 5921 5920 5920 5919 5918 5917 5917 5916 5915 5914 5913 5912 5912 5911 5910 5909 5908 5907 5906 5905 5904 5903 5902 5901 5899 5898 5896 5894 5892 5890 5888 5887 5887 5886 5885 5884 5883 5882 5881 5880 5879
5919 5919 5920 5921 5921 5922 5923 5923 5923 5924 5924 5923 5924 5924 5924 5925 5925 5926 5926 5926 5927 5927 5927 5928 5928 5928 5928 5928 5928 5927 5927 5927 5926 5926 5925 5924 5923 5922 5921 5921 5921 5921 5920 5920 5919 5919 5918 5917 5916 5916 5915 5914 5913 5912 5911 5910 5910 5909 5908 5907 5906 5905 5904 5903 5902 5901 5900 5899 5898 5896 5895 5893 5891 5889 5886 5884 5883 5882 5881 5881 5881 5880 5879 5878 5876
5916 5917 5918 5918 5919 5920 5921 5921 5921 5922 5922 5922 5922 5922 5923 5923 5924 5924 5925 5925 5925 5925 5926 5926 5926 5926 5926 5926 5926 5926 5925 5925 5924 5924 5923 5922 5921 5920 5920 5919 5919 5919 5918 5918 5918 5917 5916 5915 5915 5914 5913 5912 5911 5910 5909 5908 5908 5907 5906 5905 5905 5904 5903 5902 5901 5900 5898 5897 5895 5894 5892 5891 5889 5887 5885 5883 5881 5879 5878 5877 5876 5876 5876 5875 5874
5914 5915 5915 5916 5917 5918 5918 5919 5919 5919 5920 5920 5921 5921 5921 5922 5922 5923 5923 5923 5923 5924 5924 5924 5924 5924 5924 5924 5924 5924 5923 5923 5922 5922 5921 5920 5919 5918 5918 5917 5917 5917 5917 5917 5916 5915 5915 5914 5913 5912 5911 5910 5909 5909 5908 5907 5906 5905 5904 5904 5903 5902 5901 5900 5899 5897 5896 5894 5893 5891 5890 5889 5887 5886 5884 5882 5880 5877 5876 5874 5872 5871 5872 5872 5871
5911 5912 5913 5913 5914 5915 5916 5916 5916 5917 5918 5918 5918 5919 5919 5920 5921 5921 5921 5921 5922 5922 5922 5922 5922 5922 5922 5922 5922 5921 5921 5921 5920 5920 5919 5918 5917 5916 5916 5915 5915 5915 5915 5915 5914 5913 5913 5912 5911 5910 5909 5908 5908 5907 5906 5905 5904 5903 5902 5901 5901 5900 5899 5898 5896 5895 5893 5892 5890 5889 5888 5886 5885 5884 5882 5880 5878 5876 5874 5872 5870 5868 5867 5867 5867
5908 5909 5910 5911 5912 5912 5913 5913 5914 5914 5915 5916 5916 5917 5918 5918 5919 5919 5919 5919 5920 5920 5920 5920 5920 5920 5920 5920 5919 5919 5919 5919 5918 5917 5917 5916 5915 5914 5914 5913 5913 5913 5913 5913 5912 5911 5911 5910 5909 5908 5907 5906 5905 5905 5904 5903 5902 5901 5900 5899 5898 5897 5896 5895 5893 5892 5891 5889 5888 5886 5885 5884 5882 5881 5880 5878 5876 5874 5872 5870 5868 5866 5865 5863 5862
5906 5907 5907 5909 5909 5910 5910 5911 5911 5912 5912 5913 5914 5915 5916 5916 5917 5917 5917 5917 5918 5918 5918 5918 5918 5918 5918 5917 5917 5917 5916 5916 5916 5915 5914 5914 5913 5912 5912 5911 5911 5911 5910 5910 5909 5908 5908 5907 5906 5906 5905 5904 5903 5902 5901 5900 5899 5898 5897 5896 5895 5894 5893 5892 5891 5890 5888 5887 5885 5884 5882 5881 5879 5878 5877 5875 5874 5872 5870 5868 5866 5864 5862 5861 5859
5906 5906 5906 5907 5907 5908 5908 5909 5909 5910 5910 5911 5912 5913 5913 5914 5914 5915 5915 5915 5915 5915 5915 5915 5915 5915 5915 5915 5915 5914 5914 5914 5913 5913 5912 5912 5911 5911 5910 5909 5909 5908 5908 5907 5906 5905 5904 5904 5903 5903 5902 5901 5900 5899 5899 5898 5897 5895 5894 5893 5892 5891 5890 5889 5888 5887 5886 5884 5883 5881 5880 5878 5877 5875 5873 5872 5871 5869 5867 5865 5863 5861 5859 5858 5857
5906 5906 5906 5906 5906 5907 5907 5907 5908 5908 5909 5909 5910 5911 5911 5912 5912 5912 5912 5913 5913 5913 5913 5913 5912 5912 5913 5912 5912 5912 5911 5911 5911 5910 5910 5910 5909 5908 5908 5907 5906 5905 5905 5904 5903 5902 5901 5901 5901 5900 5899 5898 5897 5896 5895 5895 5894 5893 5892 5890 5889 5888 5888 5887 5885 5884 5883 5881 5880 5878 5877 5875 5874 5872 5870 5869 5867 5866 5864 5862 5860 5858 5857 5855 5854
5906 5905 5905 5905 5906 5906 5906 5906 5907 5907 5908 5908 5909 5909 5909 5909 5910 5910 5910 5910 5910 5910 5910 5910 5910 5910 5910 5910 5910 5909 5909 5909 5908 5908 5908 5907 5907 5906 5905 5904 5903 5903 5902 5901 5900 5899 5899 5898 5897 5897 5896 5895 5894 5893 5892 5892 5891 5891 5890 5888 5887 5886 5885 5884 5883 5881 5880 5879 5877 5876 5874 5872 5870 5869 5867 5866 5865 5863 5861 5859 5858 5856 5854 5852 5851
5904 5904 5904 5905 5905 5905 5905 5905 5905 5906 5906 5907 5907 5907 5907 5907 5907 5907 5908 5908 5908 5907 5907 5907 5907 5907 5907 5907 5907 5906 5906 5906 5906 5906 5905 5905 5904 5903 5902 5901 5901 5900 5899 5898 5898 5897 5896 5895 5894 5893 5893 5892 5891 5890 5890 5889 5888 5888 5887 5886 5884 5883 5882 5881 5880 5879 5877 5876 5874 5873 5871 5869 5867 5866 5864 5863 5862 5860 5858 5856 5854 5852 5851 5849 5848
5903 5903 5903 5904 5904 5905 5904 5904 5904 5905 5905 5905 5905 5905 5905 5905 5905 5905 5905 5905 5905 5905 5905 5905 5904 5904 5904 5904 5904 5904 5904 5904 5904 5903 5902 5902 5901 5901 5900 5899 5898 5898 5897 5896 5895 5894 5893 5892 5891 5890 5889 5889 5888 5887 5886 5886 5885 5884 5883 5882 5881 5880 5879 5878 5877 5876 5874 5873 5872 5870 5868 5866 5864 5862 5861 5860 5859 5857 5854 5853 5851 5849 5847 5846 5845
5901 5901 5901 5902 5903 5903 5903 5903 5903 5903 5903 5904 5904 5903 5903 5903 5903 5903 5903 5903 5903 5903 5902 5902 5901 5901 5901 5901 5901 5901 5902 5902 5902 5901 5901 5900 5900 5899 5898 5897 5896 5896 5895 5894 5893 5892 5891 5890 5889 5888 5886 5886 5885 5884 5883 5882 5882 5881 5880 5879 5878 5876 5875 5874 5874 5873 5872 5870 5869 5867 5866 5864 5861 5860 5858 5857 5856 5854 5852 5850 5848 5846 5844 5843 5841
5899 5899 5900 5900 5901 5901 5901 5901 5901 5901 5902 5902 5902 5902 5901 5901 5901 5901 5900 5900 5900 5900 5900 5899 5899 5899 5899 5899 5899 5900 5901 5901 5900 5900 5899 5899 5898 5897 5897 5895 5894 5893 5892 5891 5890 5889 5888 5886 5886 5885 5883 5882 5882 5880 5879 5878 5878 5877 5876 5875 5874 5872 5871 5870 5870 5869 5868 5867 5865 5864 5863 5861 5859 5857 5856 5854 5853 5851 5849 5847 5845 5843 5841 5839 5838
5897 5897 5897 5897 5898 5898 5899 5899 5899 5899 5900 5900 5900 5900 5899 5899 5899 5898 5898 5898 5898 5897 5897 5896 5896 5896 5897 5898 5899 5900 5900 5899 5898 5897 5896 5896 5895 5894 5893 5892 5891 5890 5889 5888 5887 5885 5884 5882 5881 5881 5880 5879 5878 5877 5876 5875 5874 5873 5873 5871 5870 5869 5867 5866 5866 5865 5865 5863 5862 5860 5859 5858 5856 5855 5853 5852 5850 5848 5846 5844 5842 5840 5837 5835 5834
5894 5895 5894 5894 5895 5895 5896 5897 5897 5897 5898 5897 5898 5897 5897 5897 5896 5896 5896 5896 5895 5895 5894 5894 5894 5895 5897 5899 5899 5897 5896 5895 5895 5894 5893 5892 5891 5890 5889 5888 5887 5886 5885 5884 5882 5881 5880 5879 5877 5876 5876 5875 5874 5873 5872 5871 5870 5869 5868 5868 5866 5865 5864 5863 5862 5862 5861 5860 5858 5857 5855 5854 5853 5851 5850 5848 5846 5844 5842 5840 5838 5836 5834 5831 5829
5892 5892 5892 5892 5892 5893 5894 5894 5894 5895 5895 5895 5895 5895 5895 5894 5894 5894 5894 5893 5893 5892 5892 5892 5894 5896 5897 5897 5896 5894 5892 5891 5892 5891 5890 5889 5887 5886 5885 5884 5883 5881 5880 5879 5878 5876 5875 5874 5873 5872 5872 5871 5870 5869 5868 5867 5867 5865 5864 5863 5862 5861 5861 5860 5859 5858 5857 5856 5855 5853 5852 5850 5849 5848 5846 5844 5842 5840 5838 5836 5834 5832 5830 5827 5825
5889 5889 5889 5889 5890 5891 5891 5892 5892 5892 5892 5893 5893 5893 5892 5892 5892 5892 5892 5891 5890 5890 5891 5892 5894 5895 5894 5893 5891 5890 5889 5889 5890 5890 5888 5885 5883 5883 5882 5880 5879 5878 5876 5874 5873 5872 5871 5869 5868 5867 5866 5866 5865 5864 5863 5863 5862 5861 5860 5859 5858 5858 5857 5856 5855 5854 5853 5851 5850 5849 5848 5847 5845 5844 5842 5840 5838 5836 5834 5832 5830 5827 5825 5823 5821
5885 5886 5886 5886 5887 5888 5889 5889 5889 5889 5890 5890 5890 5890 5890 5890 5890 5890 5889 5888 5888 5889 5890 5891 5892 5892 5890 5888 5887 5887 5887 5888 5888 5888 5886 5883 5881 5880 5879 5877 5875 5873 5872 5870 5868 5867 5865 5864 5863 5862 5861 5861 5860 5859 5859 5858 5857 5857 5856 5855 5854 5854 5853 5852 5851 5850 5848 5847 5846 5845 5843 5842 5841 5839 5838 5836 5833 5832 5829 5827 5825 5823 5820 5818 5815
5881 5882 5883 5883 5884 5886 5886 5886 5886 5886 5887 5887 5887 5887 5887 5888 5888 5887 5887 5886 5886 5887 5888 5889 5889 5888 5886 5885 5883 5883 5885 5887 5887 5885 5884 5881 5879 5877 5875 5873 5871 5870 5868 5867 5865 5863 5861 5860 5859 5858 5856 5855 5855 5854 5854 5853 5853 5852 5852 5851 5850 5850 5849 5848 5846 5845 5844 5842 5841 5840 5839 5837 5836 5835 5833 5831 5829 5827 5824 5822 5820 5818 5815 5813 5810
5877 5878 5879 5881 5882 5883 5883 5883 5883 5883 5884 5884 5884 5884 5885 5885 5885 5885 5884 5884 5885 5885 5885 5886 5885 5884 5883 5882 5880 5880 5882 5884 5884 5883 5882 5879 5877 5875 5872 5870 5868 5867 5865 5864 5862 5861 5858 5856 5855 5853 5852 5850 5850 5850 5849 5848 5848 5848 5847 5847 5846 5845 5844 5843 5842 5841 5839 5838 5837 5836 5834 5833 5831 5830 5828 5826 5824 5822 5820 5818 5815 5813 5810 5808 5805
5874 5875 5876 5877 5879 5880 5880 5880 5880 5880 5880 5881 5881 5882 5882 5882 5882 5882 5882 5882 5882 5882 5882 5882 5882 5881 5880 5879 5879 5878 5878 5878 5879 5880 5879 5877 5874 5872 5869 5867 5865 5864 5862 5860 5859 5857 5855 5853 5851 5849 5847 5846 5846 5845 5844 5844 5844 5843 5843 5842 5842 5841 5840 5839 5837 5836 5835 5833 5832 5831 5830 5828 5827 5825 5824 5821 5819 5817 5815 5813 5810 5808 5805 5803 5800
5871 5872 5873 5874 5875 5876 5876 5876 5876 5877 5877 5878 5878 5878 5879 5878 5878 5879 5879 5879 5879 5879 5879 5879 5879 5878 5878 5877 5877 5876 5875 5873 5874 5875 5875 5873 5871 5869 5866 5864 5862 5860 5859 5856 5854 5853 5851 5848 5846 5845 5843 5842 5842 5840 5839 5839 5839 5839 5838 5838 5837 5837 5836 5835 5833 5832 5830 5829 5828 5827 5825 5823 5822 5821 5819 5817 5815 5812 5810 5808 5805 5802 5800 5797 5795
5868 5869 5870 5871 5872 5872 5873 5873 5873 5874 5874 5875 5875 5875 5875 5875 5876 5876 5876 5877 5877 5877 5876 5876 5876 5875 5875 5874 5873 5873 5871 5870 5870 5870 5870 5868 5867 5865 5863 5862 5859 5857 5855 5852 5850 5849 5847 5844 5842 5841 5839 5838 5838 5836 5835 5835 5835 5834 5833 5833 5833 5832 5832 5830 5829 5827 5826 5824 5823 5822 5820 5818 5817 5816 5815 5813 5810 5807 5804 5803 5800 5797 5794 5792 5790
5864 5865 5866 5867 5868 5869 5869 5870 5870 5871 5871 5872 5872 5872 5873 5873 5874 5874 5874 5874 5874 5874 5874 5873 5873 5872 5871 5870 5870 5869 5868 5866 5866 5865 5865 5863 5862 5860 5859 5857 5855 5853 5851 5848 5846 5844 5843 5841 5838 5836 5835 5834 5833 5832 5831 5830 5830 5829 5829 5828 5828 5828 5827 5826 5824 5823 5821 5820 5818 5817 5815 5814 5813 5812 5810 5808 5805 5802 5798 5797 5795 5792 5789 5787 5785
5860 5861 5863 5864 5865 5866 5866 5867 5867 5867 5868 5868 5868 5869 5870 5871 5871 5871 5872 5872 5871 5871 5870 5870 5869 5868 5868 5867 5866 5865 5863 5862 5862 5861 5860 5858 5857 5855 5853 5851 5850 5848 5845 5843 5841 5839 5838 5836 5834 5832 5831 5830 5829 5828 5826 5825 5825 5825 5824 5824 5823 5823 5822 5821 5820 5818 5816 5815 5813 5812 5810 5809 5808 5807 5805 5802 5799 5796 5794 5791 5789 5786 5784 5781 5778
5855 5857 5859 5860 5861 5862 5862 5862 5862 5863 5864 5864 5865 5866 5867 5867 5868 5868 5868 5868 5868 5867 5867 5866 5865 5865 5864 5863 5863 5861 5860 5858 5858 5856 5855 5854 5852 5850 5848 5846 5844 5842 5839 5838 5836 5834 5832 5831 5829 5828 5826 5826 5825 5824 5822 5821 5821 5821 5820 5819 5819 5819 5818 5816 5814 5813 5812 5810 5808 5807 5806 5804 5803 5801 5799 5796 5793 5790 5788 5786 5784 5781 5778 5775 5772
5850 5853 5855 5856 5858 5858 5858 5857 5857 5858 5860 5860 5861 5862 5863 5864 5864 5865 5864 5864 5864 5863 5863 5862 5861 5861 5860 5860 5859 5857 5856 5854 5853 5852 5850 5849 5847 5845 5843 5840 5838 5836 5833 5831 5830 5828 5827 5826 5824 5823 5822 5822 5821 5820 5819 5818 5818 5817 5816 5816 5815 5814 5813 5811 5809 5807 5806 5805 5803 5802 5800 5799 5797 5796 5793 5790 5787 5784 5782 5780 5778 5776 5772 5769 5766
5847 5849 5850 5852 5854 5854 5853 5853 5853 5854 5855 5856 5857 5859 5860 5860 5861 5861 5861 5860 5860 5859 5859 5858 5857 5856 5856 5855 5854 5853 5851 5849 5848 5847 5845 5843 5841 5839 5837 5835 5832 5830 5828 5826 5824 5824 5823 5821 5820 5819 5818 5818 5817 5816 5815 5814 5813 5813 5812 5812 5811 5809 5808 5806 5804 5802 5801 5799 5798 5796 5795 5793 5792 5790 5787 5784 5782 5779 5776 5774 5771 5769 5766 5762 5759
5842 5844 5846 5847 5849 5849 5848 5848 5849 5850 5851 5852 5853 5855 5856 5857 5858 5857 5857 5857 5856 5855 5855 5854 5853 5852 5851 5850 5849 5847 5845 5844 5843 5841 5839 5837 5835 5833 5832 5830 5827 5825 5823 5821 5820 5819 5818 5817 5816 5815 5814 5813 5812 5811 5810 5809 5809 5808 5808 5807 5806 5804 5803 5800 5798 5796 5795 5794 5793 5791 5790 5788 5786 5783 5780 5778 5775 5772 5770 5767 5765 5762 5759 5756 5753
5838 5839 5841 5843 5844 5844 5844 5844 5844 5845 5846 5848 5850 5851 5853 5853 5853 5853 5853 5852 5852 5851 5850 5849 5848 5847 5847 5845 5844 5842 5840 5838 5837 5835 5833 5831 5830 5828 5826 5825 5823 5820 5819 5817 5816 5814 5814 5812 5810 5810 5809 5808 5807 5806 5806 5805 5804 5803 5803 5802 5800 5799 5797 5795 5793 5791 5790 5789 5788 5787 5784 5782 5780 5777 5773 5771 5769 5766 5763 5761 5758 5756 5753 5750 5747
5833 5835 5837 5838 5839 5839 5839 5839 5840 5841 5843 5845 5846 5848 5849 5849 5849 5849 5848 5848 5847 5846 5846 5845 5844 5843 5842 5840 5838 5836 5834 5832 5831 5829 5827 5826 5825 5823 5821 5820 5818 5816 5814 5813 5812 5811 5809 5807 5805 5805 5804 5803 5802 5801 5800 5800 5799 5798 5798 5796 5794 5793 5791 5790 5788 5786 5785 5784 5783 5781 5779 5775 5772 5770 5767 5764 5762 5759 5757 5755 5752 5749 5746 5744 5740
5829 5830 5832 5833 5833 5834 5835 5836 5836 5838 5840 5841 5842 5844 5845 5844 5844 5844 5843 5843 5843 5842 5841 5840 5839 5838 5836 5834 5832 5830 5828 5826 5824 5822 5821 5819 5818 5817 5815 5814 5813 5811 5810 5809 5807 5805 5804 5802 5801 5799 5798 5798 5797 5796 5795 5795 5794 5793 5792 5790 5789 5787 5786 5784 5783 5781 5780 5779 5777 5775 5772 5769 5765 5763 5761 5758 5755 5753 5751 5748 5745 5742 5740 5738 5735
5824 5826 5828 5828 5829 5830 5831 5832 5833 5835 5836 5837 5838 5839 5840 5840 5839 5839 5839 5839 5838 5837 5836 5835 5833 5832 5830 5828 5826 5824 5821 5820 5818 5816 5814 5813 5811 5810 5809 5808 5807 5806 5805 5804 5802 5800 5799 5798 5796 5795 5794 5794 5793 5792 5791 5791 5789 5788 5786 5784 5783 5782 5780 5778 5777 5776 5774 5772 5770 5767 5765 5762 5759 5757 5755 5752 5749 5747 5745 5742 5739 5736 5733 5732 5729
5820 5822 5823 5824 5825 5826 5827 5828 5829 5830 5832 5832 5833 5834 5835 5835 5834 5834 5834 5834 5833 5832 5830 5829 5828 5826 5824 5822 5820 5818 5815 5813 5811 5809 5807 5805 5804 5803 5802 5802 5801 5801 5799 5798 5797 5795 5794 5793 5792 5791 5790 5790 5789 5788 5787 5786 5784 5782 5780 5779 5777 5776 5773 5772 5771 5770 5767 5765 5762 5760 5757 5755 5753 5751 5749 5746 5744 5741 5738 5735 5733 5730 5728 5725 5723
5815 5817 5818 5820 5821 5822 5823 5824 5824 5825 5826 5827 5828 5829 5829 5829 5829 5829 5829 5828 5827 5826 5824 5823 5821 5820 5818 5815 5813 5811 5809 5807 5805 5803 5801 5799 5798 5797 5797 5796 5796 5795 5794 5792 5791 5790 5789 5788 5787 5786 5786 5785 5785 5784 5782 5781 5779 5776 5774 5773 5771 5769 5767 5766 5765 5763 5760 5758 5756 5753 5751 5749 5747 5745 5743 5740 5737 5735 5732 5729 5727 5724 5722 5719 5717
5810 5812 5814 5816 5817 5818 5819 5819 5819 5820 5820 5819 5821 5823 5824 5824 5824 5824 5823 5822 5821 5819 5818 5816 5814 5812 5810 5808 5807 5805 5803 5801 5799 5797 5795 5794 5793 5792 5792 5791 5791 5790 5788 5787 5786 5785 5784 5783 5783 5782 5781 5781 5780 5779 5777 5775 5773 5770 5769 5767 5765 5763 5762 5761 5759 5757 5755 5752 5750 5748 5745 5743 5741 5739 5736 5734 5731 5728 5726 5723 5720 5718 5716 5713 5711
5806 5807 5809 5810 5812 5813 5813 5813 5813 5813 5813 5814 5815 5817 5817 5818 5818 5817 5816 5815 5814 5813 5812 5810 5808 5806 5804 5801 5800 5798 5797 5795 5793 5791 5790 5789 5788 5787 5787 5786 5785 5784 5782 5781 5781 5780 5779 5779 5778 5777 5777 5776 5775 5773 5772 5770 5767 5765 5763 5761 5760 5758 5757 5755 5753 5751 5749 5746 5744 5742 5740 5738 5735 5732 5730 5727 5724 5722 5719 5717 5714 5712 5710 5708 5706
5800 5802 5803 5805 5806 5807 5807 5807 5807 5808 5808 5809 5810 5810 5810 5811 5812 5811 5810 5809 5808 5807 5806 5804 5802 5800 5797 5795 5793 5792 5790 5788 5787 5786 5786 5784 5783 5782 5782 5780 5779 5777 5776 5775 5775 5775 5774 5773 5772 5772 5772 5771 5770 5768 5766 5765 5762 5759 5757 5756 5755 5753 5752 5749 5747 5745 5743 5741 5739 5736 5734 5731 5729 5726 5723 5721 5718 5716 5713 5711 5708 5706 5704 5703 5701
5795 5796 5798 5799 5800 5800 5800 5801 5801 5802 5803 5804 5804 5805 5805 5806 5805 5805 5804 5803 5802 5801 5800 5798 5796 5793 5790 5788 5787 5785 5784 5782 5781 5781 5780 5779 5778 5777 5776 5774 5772 5771 5770 5769 5768 5768 5768 5768 5767 5767 5766 5765 5764 5762 5761 5759 5757 5754 5752 5751 5750 5748 5746 5743 5741 5739 5737 5735 5733 5730 5728 5725 5723 5720 5717 5715 5712 5710 5707 5705 5703 5701 5699 5697 5695
5789 5791 5792 5793 5794 5794 5795 5795 5796 5797 5798 5799 5799 5800 5800 5799 5799 5798 5797 5797 5796 5795 5793 5791 5789 5786 5784 5783 5781 5779 5778 5777 5776 5776 5775 5773 5772 5771 5769 5767 5766 5764 5764 5763 5762 5762 5763 5763 5762 5761 5760 5759 5758 5756 5755 5753 5752 5750 5749 5747 5745 5742 5740 5737 5735 5733 5731 5730 5727 5724 5721 5718 5716 5714 5711 5709 5706 5704 5702 5700 5698 5696 5694 5692 5690
5784 5785 5786 5788 5788 5789 5790 5790 5791 5792 5792 5793 5793 5793 5793 5792 5792 5791 5791 5790 5789 5788 5786 5784 5782 5780 5779 5777 5776 5774 5773 5772 5772 5771 5770 5768 5766 5764 5762 5761 5759 5758 5758 5759 5758 5758 5758 5757 5756 5756 5755 5753 5752 5751 5749 5747 5746 5745 5743 5741 5739 5736 5734 5732 5730 5727 5725 5723 5721 5719 5715 5712 5709 5707 5705 5703 5701 5699 5697 5695 5693 5691 5689 5687 5685
5778 5779 5781 5782 5783 5784 5785 5786 5786 5786 5787 5787 5787 5787 5786 5786 5785 5785 5784 5784 5783 5781 5779 5777 5775 5774 5773 5772 5771 5770 5768 5768 5767 5767 5765 5763 5761 5758 5755 5754 5755 5754 5754 5755 5755 5754 5753 5752 5751 5750 5749 5747 5746 5745 5744 5742 5740 5739 5737 5734 5732 5730 5728 5726 5724 5722 5719 5717 5714 5712 5709 5706 5703 5701 5699 5697 5695 5694 5692 5690 5688 5686 5684 5682 5680
5773 5774 5775 5777 5778 5779 5780 5780 5780 5781 5781 5781 5780 5780 5780 5779 5779 5778 5778 5777 5776 5774 5771 5770 5769 5768 5767 5766 5765 5765 5764 5763 5762 5762 5761 5760 5759 5756 5752 5750 5751 5751 5750 5749 5749 5749 5748 5747 5746 5745 5744 5742 5740 5739 5738 5736 5734 5732 5730 5728 5726 5724 5722 5720 5719 5716 5714 5711 5708 5706 5703 5700 5698 5695 5693 5691 5690 5688 5686 5684 5683 5681 5679 5677 5675